[[{"header":{"parameterUnit":"m.s-1","parameterCategory":1,"la1":30.2991,"la2":30.254,"lo1":-89.0895,"lo2":-89.0444,"dy":0.0017,"dx":0.0017,"nx":28,"ny":28,"refTime":"2026-02-13T09:00:00:Z","depth":0,"parameterNumber":2,"parameterNumberName":"U-component_of_WINDS"},"data":[0,0,0,0,0,0,0,0,0,0,0,0,0,0,0,0,0,0,0,0,0,0,0,0,0,0,0,0,0,0,0,0,0,0,0,0,0,0,0,0,0,0,0,0,0,0,0,0,0,0,0,0,0,0,0,0,0,0,-1.1201,-1.1201,0,-1.1226,-1.1227,-1.1227,-1.1212,-1.1211,-1.1211,-1.121,-1.1237,-1.1238,-1.124,0,0,0,0,0,0,0,0,0,0,0,0,0,-1.114,-1.1141,-1.1201,-1.1201,-1.1201,-1.1226,-1.1227,-1.1227,-1.1212,-1.1211,-1.121,-1.121,-1.1236,-1.1238,-1.124,0,0,0,0,0,0,0,0,0,0,0,0,0,-1.1166,-1.1142,-1.1201,-1.1197,-1.1197,-1.1226,-1.1227,-1.1227,-1.1212,-1.1211,-1.121,-1.1209,-1.1236,-1.1238,-1.124,-1.1275,0,0,-1.1246,-1.1247,0,0,0,0,0,0,0,0,-1.1165,-1.1168,-1.1197,-1.1197,-1.1197,-1.1215,-1.1215,-1.1243,-1.1213,-1.1207,-1.121,-1.1209,-1.1231,-1.1233,-1.124,-1.1276,-1.1277,-1.1247,-1.1248,-1.1249,-1.1249,0,0,0,0,0,0,0,-1.1163,-1.1167,-1.1211,-1.1198,-1.1198,-1.1194,-1.1197,-1.122,-1.1224,-1.1207,-1.1206,-1.1209,-1.123,-1.1238,-1.1241,-1.1278,-1.1247,-1.1248,-1.125,-1.125,-1.1344,-1.1345,0,0,0,0,0,0,-1.1161,-1.1166,-1.121,-1.1212,-1.1178,-1.1196,-1.1199,-1.121,-1.1224,-1.1225,-1.121,-1.1208,-1.1235,-1.1238,-1.1242,-1.1284,-1.1249,-1.1251,-1.1252,-1.1343,-1.1344,-1.1345,0,0,0,0,0,0,-1.116,-1.1165,-1.1209,-1.1189,-1.1194,-1.1199,-1.1211,-1.1211,-1.1219,-1.1226,-1.1227,-1.1217,-1.1234,-1.1239,-1.1267,-1.1284,-1.1252,-1.1254,-1.1341,-1.1343,-1.1345,-1.1367,0,0,0,0,0,0,-1.1158,-1.1165,-1.1178,-1.1189,-1.1195,-1.1234,-1.1212,-1.1213,-1.1223,-1.1221,-1.1233,-1.1234,-1.1234,-1.1264,-1.1269,-1.1287,-1.1255,-1.134,-1.1342,-1.1344,-1.1365,-1.137,-1.1374,0,0,0,0,0,-1.1156,-1.1183,-1.1179,-1.1184,-1.1211,-1.1235,-1.1238,-1.1237,-1.1224,-1.1238,-1.1242,-1.1234,-1.1282,-1.1267,-1.1272,-1.1291,-1.1338,-1.1341,-1.1344,-1.1363,-1.1369,-1.1374,0,0,0,0,0,0,-1.1175,-1.1185,-1.118,-1.1211,-1.1222,-1.1232,-1.1249,-1.1243,-1.1258,-1.1255,-1.1253,-1.1256,-1.1285,-1.1291,-1.1274,-1.1326,-1.1308,-1.1312,-1.1321,-1.1326,-1.1331,-1.1329,-1.1257,0,0,0,0,0,-1.1182,-1.12,-1.1208,-1.1235,-1.1241,-1.1244,-1.1254,-1.1252,-1.1263,-1.1268,-1.1275,-1.1286,-1.1304,-1.1315,-1.1332,-1.1366,-1.1369,-1.1382,-1.1386,-1.1389,-1.1393,-1.1412,-1.1418,-1.1354,-1.1354,-1.1354,0,0,-1.1198,-1.1206,-1.1217,-1.1239,-1.1247,-1.1266,-1.1248,-1.1268,-1.1282,-1.1271,-1.1298,-1.1303,-1.1316,-1.1348,-1.1362,-1.1353,-1.1411,-1.1393,-1.1396,-1.1397,-1.1415,-1.1421,-1.1427,-1.1356,-1.1356,-1.1356,0,0,-1.1237,-1.1245,-1.1268,-1.1277,-1.129,-1.1292,-1.1297,-1.1308,-1.1311,-1.1338,-1.133,-1.1347,-1.1377,-1.1387,-1.1396,-1.1439,-1.1432,-1.1444,-1.1467,-1.1486,-1.1491,-1.1495,-1.1511,-1.1516,-1.1448,-1.1448,-1.1448,0,-1.1256,-1.1283,-1.1281,-1.1303,-1.1313,-1.1303,-1.1327,-1.1336,-1.1353,-1.1361,-1.1351,-1.1389,-1.1397,-1.143,-1.1441,-1.1448,-1.1455,-1.1443,-1.149,-1.1494,-1.1499,-1.1514,-1.1519,-1.1449,-1.1449,-1.1449,-1.1449,0,-1.1306,-1.1325,-1.1343,-1.136,-1.1372,-1.1394,-1.1396,-1.1408,-1.1406,-1.1409,-1.1436,-1.1446,-1.1464,-1.1472,-1.1469,-1.1506,-1.15,-1.149,-1.1472,-1.1506,-1.152,-1.1526,-1.1451,-1.1451,-1.145,-1.145,0,0,-1.1357,-1.1373,-1.1379,-1.1387,-1.1401,-1.1416,-1.1438,-1.1456,-1.1467,-1.1479,-1.1498,-1.1524,-1.1516,-1.1526,-1.1524,-1.154,-1.1574,-1.1529,-1.1529,-1.1537,-1.1615,-1.1623,-1.1629,-1.157,-1.1571,-1.1572,-1.1614,0,-1.1397,-1.1436,-1.1435,-1.1471,-1.1489,-1.1481,-1.15,-1.1511,-1.1515,-1.1531,-1.1535,-1.1553,-1.154,-1.1546,-1.1562,-1.1567,-1.159,-1.1564,-1.1588,-1.1589,-1.1585,-1.1637,-1.1644,-1.1684,-1.162,-1.1621,-1.1621,0,-1.1449,-1.1463,-1.1501,-1.1512,-1.152,-1.1537,-1.1554,-1.1569,-1.1582,-1.1583,-1.1595,-1.1591,-1.1614,-1.1596,-1.1628,-1.161,-1.162,-1.1624,-1.1625,-1.1628,-1.1607,-1.164,-1.1696,-1.1702,-1.163,-1.1629,-1.1629,0,-1.1483,-1.1511,-1.1538,-1.1545,-1.1559,-1.1571,-1.1578,-1.1588,-1.1599,-1.1614,-1.1621,-1.1638,-1.1648,-1.1661,-1.1662,-1.1649,-1.1695,-1.1677,-1.1697,-1.1697,-1.1707,-1.1707,-1.1766,-1.1714,-1.1713,-1.1713,-1.1713,0,-1.1528,-1.1551,-1.1553,-1.157,-1.1596,-1.1595,-1.1621,-1.1627,-1.1637,-1.1654,-1.1648,-1.1664,-1.1665,-1.1682,-1.1683,-1.171,-1.1714,-1.1716,-1.1716,-1.1717,-1.1716,-1.1723,-1.172,-1.1715,-1.1715,-1.1714,-1.1714,0,-1.157,-1.1572,-1.1601,-1.1611,-1.1615,-1.1634,-1.1643,-1.1659,-1.1662,-1.1684,-1.1689,-1.1694,-1.1714,-1.1717,-1.174,-1.1741,-1.1773,-1.177,-1.1769,-1.1768,-1.1789,-1.1787,-1.1854,-1.1863,-1.1805,-1.1806,-1.1806,0,-1.1599,-1.1617,-1.1629,-1.164,-1.1647,-1.1666,-1.1677,-1.1676,-1.1688,-1.1704,-1.1718,-1.1737,-1.1752,-1.1785,-1.1791,-1.1809,-1.1806,-1.1828,-1.1809,-1.1809,-1.1807,-1.1806,-1.1808,-1.1832,-1.1833,-1.1833,-1.1834,0,-1.1649,-1.165,-1.1666,-1.1683,-1.1696,-1.1709,-1.1722,-1.1731,-1.1732,-1.1746,-1.1766,-1.1778,-1.1802,-1.1821,-1.1839,-1.1846,-1.1841,-1.184,-1.1846,-1.1847,-1.1845,-1.1847,-1.1779,-1.1839,-1.1838,-1.1838,-1.1837,-1.1837,-1.1686,-1.1702,-1.1713,-1.1731,-1.1741,-1.1752,-1.1768,-1.1773,-1.179,-1.1809,-1.1808,-1.183,-1.1842,-1.1865,-1.1874,-1.1891,-1.1884,-1.1892,-1.1894,-1.1896,-1.1899,-1.1843,-1.1895,-1.1894,-1.1894,-1.1894,-1.1894,0,-1.1737,-1.1743,-1.176,-1.1778,-1.1792,-1.1785,-1.1799,-1.1812,-1.1831,-1.1843,-1.1858,-1.1882,-1.1901,-1.1908,-1.1927,-1.1939,-1.1937,-1.1944,-1.1944,-1.1945,-1.1904,-1.1897,-1.1946,-1.1946,-1.1946,-1.1946,-1.1946,-1.1946,-1.1765,-1.1791,-1.1793,-1.1824,-1.1831,-1.1852,-1.1861,-1.1872,-1.1881,-1.1907,-1.1923,-1.1928,-1.1938,-1.1957,-1.1974,-1.1976,-1.1983,-1.1991,-1.1992,-1.1953,-1.1948,-1.1943,-1.1937,-1.1993,-1.1993,-1.2032,-1.2032,-1.2032]},{"header":{"parameterUnit":"m.s-1","parameterCategory":1,"la1":30.2991,"la2":30.254,"lo1":-89.0895,"lo2":-89.0444,"dy":0.0017,"dx":0.0017,"nx":28,"ny":28,"refTime":"2026-02-13T09:00:00:Z","depth":0,"parameterNumber":3,"parameterNumberName":"V-component_of_WINDS"},"data":[0,0,0,0,0,0,0,0,0,0,0,0,0,0,0,0,0,0,0,0,0,0,0,0,0,0,0,0,0,0,0,0,0,0,0,0,0,0,0,0,0,0,0,0,0,0,0,0,0,0,0,0,0,0,0,0,0,0,-0.5767,-0.5768,0,-0.587,-0.5871,-0.5872,-0.5902,-0.5902,-0.5901,-0.5901,-0.6006,-0.6009,-0.6012,0,0,0,0,0,0,0,0,0,0,0,0,0,-0.5596,-0.5599,-0.5767,-0.5768,-0.5769,-0.587,-0.5871,-0.5872,-0.5902,-0.5902,-0.5901,-0.5901,-0.6005,-0.6008,-0.6012,0,0,0,0,0,0,0,0,0,0,0,0,0,-0.5682,-0.56,-0.5766,-0.5796,-0.58,-0.5869,-0.5871,-0.5873,-0.5903,-0.5902,-0.5901,-0.59,-0.6003,-0.6008,-0.6013,-0.606,0,0,-0.6028,-0.603,0,0,0,0,0,0,0,0,-0.5677,-0.5688,-0.5791,-0.5794,-0.5799,-0.5872,-0.5849,-0.5935,-0.5903,-0.5864,-0.5901,-0.59,-0.5962,-0.597,-0.5991,-0.6064,-0.6069,-0.6028,-0.6031,-0.6034,-0.6035,0,0,0,0,0,0,0,-0.5671,-0.5684,-0.5807,-0.5792,-0.5797,-0.5805,-0.5816,-0.5866,-0.5916,-0.5867,-0.5869,-0.5881,-0.5964,-0.5986,-0.5994,-0.6071,-0.6028,-0.6033,-0.6036,-0.6038,-0.6188,-0.6189,0,0,0,0,0,0,-0.566,-0.5678,-0.5804,-0.5811,-0.5735,-0.5808,-0.5821,-0.585,-0.5916,-0.5925,-0.5882,-0.5882,-0.5978,-0.5988,-0.5998,-0.6058,-0.6034,-0.6038,-0.6041,-0.6187,-0.6189,-0.619,0,0,0,0,0,0,-0.5656,-0.5671,-0.58,-0.5745,-0.5762,-0.5812,-0.5844,-0.5852,-0.5875,-0.5927,-0.5936,-0.5896,-0.5978,-0.5991,-0.6044,-0.6062,-0.604,-0.6045,-0.6186,-0.6188,-0.6189,-0.6178,0,0,0,0,0,0,-0.5651,-0.5669,-0.5687,-0.5745,-0.5765,-0.5845,-0.5845,-0.5855,-0.5883,-0.5885,-0.5942,-0.5951,-0.5978,-0.6037,-0.6049,-0.6068,-0.6049,-0.6185,-0.6187,-0.6189,-0.6177,-0.6179,-0.6181,0,0,0,0,0,-0.5645,-0.568,-0.5688,-0.5703,-0.5789,-0.5846,-0.5857,-0.5888,-0.5884,-0.5903,-0.5937,-0.5949,-0.6058,-0.6042,-0.6056,-0.6077,-0.6184,-0.6186,-0.6189,-0.6176,-0.6179,-0.6181,0,0,0,0,0,0,-0.5622,-0.5688,-0.5698,-0.5753,-0.5794,-0.5851,-0.5876,-0.589,-0.5932,-0.5932,-0.5969,-0.5981,-0.6033,-0.606,-0.6041,-0.6126,-0.6121,-0.6126,-0.6107,-0.611,-0.6111,-0.6104,-0.6053,0,0,0,0,0,-0.5624,-0.5665,-0.572,-0.5763,-0.5783,-0.5825,-0.5851,-0.5872,-0.5916,-0.5933,-0.597,-0.6012,-0.6056,-0.6084,-0.6127,-0.6181,-0.6194,-0.6202,-0.6204,-0.6205,-0.621,-0.6241,-0.6246,-0.6197,-0.6197,-0.6197,0,0,-0.5627,-0.5668,-0.5692,-0.5759,-0.5793,-0.5835,-0.584,-0.5883,-0.5915,-0.594,-0.5993,-0.6022,-0.6071,-0.6125,-0.6151,-0.6149,-0.6226,-0.6208,-0.6209,-0.6213,-0.6244,-0.6249,-0.6253,-0.6199,-0.6199,-0.6198,0,0,-0.5655,-0.569,-0.573,-0.5764,-0.5816,-0.5844,-0.5854,-0.5909,-0.5929,-0.5983,-0.6003,-0.6041,-0.6115,-0.6149,-0.6177,-0.6218,-0.6231,-0.623,-0.6241,-0.6271,-0.6275,-0.6278,-0.6295,-0.63,-0.6235,-0.6235,-0.6235,0,-0.5653,-0.5717,-0.5749,-0.5792,-0.5822,-0.5846,-0.5887,-0.5919,-0.5981,-0.6001,-0.5999,-0.6093,-0.6128,-0.6191,-0.6201,-0.6222,-0.6235,-0.6225,-0.6272,-0.6276,-0.6279,-0.6295,-0.6301,-0.6234,-0.6234,-0.6234,-0.6234,0,-0.5712,-0.5756,-0.5783,-0.5843,-0.5876,-0.5918,-0.5956,-0.5985,-0.6002,-0.6031,-0.6086,-0.6128,-0.6181,-0.6197,-0.6214,-0.6263,-0.6261,-0.6264,-0.626,-0.6283,-0.6299,-0.6305,-0.6234,-0.6234,-0.6234,-0.6234,0,0,-0.573,-0.5808,-0.5818,-0.5846,-0.5904,-0.5939,-0.5982,-0.6034,-0.6058,-0.61,-0.6138,-0.62,-0.6205,-0.6235,-0.6257,-0.6283,-0.6315,-0.6284,-0.6286,-0.6289,-0.6373,-0.6371,-0.6377,-0.6323,-0.6324,-0.6325,-0.6369,0,-0.5767,-0.5846,-0.5876,-0.594,-0.5982,-0.6005,-0.6043,-0.6083,-0.611,-0.615,-0.618,-0.6224,-0.6225,-0.6244,-0.6272,-0.6305,-0.6332,-0.6302,-0.636,-0.6361,-0.6348,-0.6385,-0.6383,-0.6423,-0.6375,-0.6376,-0.6377,0,-0.5821,-0.5864,-0.5933,-0.5987,-0.6006,-0.6039,-0.609,-0.6126,-0.6172,-0.6191,-0.6225,-0.6245,-0.6291,-0.6283,-0.6348,-0.6326,-0.6351,-0.6371,-0.6374,-0.6382,-0.6372,-0.6396,-0.6436,-0.6442,-0.6387,-0.6386,-0.6385,0,-0.5829,-0.5904,-0.5956,-0.5979,-0.6043,-0.6066,-0.6094,-0.6139,-0.6169,-0.6212,-0.6232,-0.628,-0.6307,-0.6343,-0.6376,-0.6366,-0.6438,-0.6432,-0.6455,-0.6455,-0.6471,-0.647,-0.6517,-0.6484,-0.6484,-0.6483,-0.6483,0,-0.5868,-0.5909,-0.596,-0.5992,-0.6039,-0.6073,-0.6119,-0.6148,-0.6188,-0.6226,-0.6248,-0.6283,-0.6323,-0.6363,-0.6388,-0.6439,-0.645,-0.6467,-0.6474,-0.6466,-0.6464,-0.6485,-0.6483,-0.6485,-0.6485,-0.6484,-0.6484,0,-0.5886,-0.5921,-0.5979,-0.6035,-0.605,-0.6083,-0.6131,-0.6163,-0.6191,-0.6239,-0.6252,-0.6297,-0.6345,-0.6381,-0.6443,-0.646,-0.6515,-0.652,-0.65,-0.6503,-0.6525,-0.6523,-0.6589,-0.66,-0.6557,-0.6557,-0.6558,0,-0.5909,-0.5942,-0.6002,-0.6029,-0.6057,-0.61,-0.613,-0.6165,-0.6195,-0.625,-0.6276,-0.6326,-0.6368,-0.6444,-0.6482,-0.653,-0.6539,-0.6558,-0.6546,-0.6538,-0.6541,-0.6539,-0.6543,-0.656,-0.6561,-0.6561,-0.6561,0,-0.5948,-0.5964,-0.6007,-0.6056,-0.6092,-0.6132,-0.6173,-0.6194,-0.6235,-0.6269,-0.6319,-0.6352,-0.6416,-0.6466,-0.6517,-0.6546,-0.6561,-0.6564,-0.6573,-0.6566,-0.6554,-0.6563,-0.6506,-0.6563,-0.6563,-0.6563,-0.6563,-0.6562,-0.597,-0.6001,-0.6048,-0.6095,-0.613,-0.6167,-0.62,-0.6233,-0.6276,-0.6331,-0.6348,-0.64,-0.6446,-0.6517,-0.6546,-0.6588,-0.6587,-0.6599,-0.6602,-0.6605,-0.6606,-0.6545,-0.6597,-0.6597,-0.6597,-0.6597,-0.6597,0,-0.6011,-0.6043,-0.6086,-0.6143,-0.618,-0.619,-0.6236,-0.6267,-0.6313,-0.6354,-0.6395,-0.6453,-0.6501,-0.6543,-0.6594,-0.6619,-0.6627,-0.6631,-0.663,-0.6637,-0.6602,-0.6591,-0.6624,-0.6624,-0.6624,-0.6624,-0.6624,-0.6624,-0.6037,-0.609,-0.6112,-0.6182,-0.6213,-0.6265,-0.629,-0.6325,-0.6358,-0.6422,-0.6463,-0.649,-0.6532,-0.6585,-0.663,-0.6641,-0.666,-0.6662,-0.6675,-0.6642,-0.6639,-0.6636,-0.6626,-0.6666,-0.6666,-0.6707,-0.6707,-0.6708]}]]